TimeEDT,TemperatureF,Dew PointF,Humidity,Sea Level PressureIn,VisibilityMPH,Wind Direction,Wind SpeedMPH,Gust SpeedMPH,PrecipitationIn,Events,Conditions,WindDirDegrees,DateUTC
12:15 AM,64.4,59.0,83,29.92,10.0,NNE,9.2,-,N/A,,Mostly Cloudy,30,2013-06-19 04:15:00
12:35 AM,62.6,59.0,88,29.93,10.0,NNE,9.2,-,N/A,,Scattered Clouds,20,2013-06-19 04:35:00
12:55 AM,62.6,59.0,88,29.93,10.0,NNE,6.9,-,N/A,,Overcast,20,2013-06-19 04:55:00
1:15 AM,62.6,57.2,82,29.93,10.0,NE,6.9,-,N/A,,Overcast,40,2013-06-19 05:15:00
1:35 AM,62.6,57.2,82,29.93,10.0,NE,4.6,-,N/A,,Overcast,50,2013-06-19 05:35:00
1:55 AM,62.6,57.2,82,29.94,10.0,NE,5.8,-,N/A,,Overcast,50,2013-06-19 05:55:00
2:15 AM,60.8,55.4,82,29.94,10.0,NE,6.9,-,N/A,,Overcast,50,2013-06-19 06:15:00
2:35 AM,60.8,55.4,82,29.94,10.0,NNE,5.8,-,N/A,,Mostly Cloudy,30,2013-06-19 06:35:00
2:55 AM,60.8,55.4,82,29.94,10.0,ENE,4.6,-,N/A,,Scattered Clouds,60,2013-06-19 06:55:00
3:15 AM,60.8,55.4,82,29.95,10.0,NNE,3.5,-,N/A,,Scattered Clouds,30,2013-06-19 07:15:00
3:35 AM,60.8,55.4,82,29.95,10.0,NE,4.6,-,N/A,,Mostly Cloudy,40,2013-06-19 07:35:00
3:55 AM,60.8,55.4,82,29.95,10.0,NE,3.5,-,N/A,,Overcast,40,2013-06-19 07:55:00
4:15 AM,60.8,55.4,82,29.94,10.0,North,3.5,-,N/A,,Mostly Cloudy,10,2013-06-19 08:15:00
4:35 AM,59.0,53.6,82,29.95,10.0,North,4.6,-,N/A,,Mostly Cloudy,10,2013-06-19 08:35:00
4:55 AM,59.0,53.6,82,29.96,10.0,NE,3.5,-,N/A,,Scattered Clouds,50,2013-06-19 08:55:00
5:15 AM,59.0,53.6,82,29.96,10.0,NE,3.5,-,N/A,,Clear,40,2013-06-19 09:15:00
5:35 AM,59.0,53.6,82,29.97,10.0,Calm,Calm,-,N/A,,Clear,0,2013-06-19 09:35:00
5:55 AM,59.0,53.6,82,29.98,10.0,Calm,Calm,-,N/A,,Clear,0,2013-06-19 09:55:00
6:15 AM,57.2,53.6,88,29.98,10.0,Calm,Calm,-,N/A,,Clear,0,2013-06-19 10:15:00
6:35 AM,59.0,53.6,82,29.99,10.0,Calm,Calm,-,N/A,,Clear,0,2013-06-19 10:35:00
6:55 AM,59.0,53.6,82,29.99,10.0,Calm,Calm,-,N/A,,Clear,0,2013-06-19 10:55:00
7:15 AM,62.6,55.4,77,30.01,10.0,ENE,4.6,-,N/A,,Clear,60,2013-06-19 11:15:00
7:35 AM,62.6,53.6,72,30.02,10.0,NE,4.6,-,N/A,,Clear,50,2013-06-19 11:35:00
7:55 AM,62.6,53.6,72,30.03,10.0,NE,4.6,-,N/A,,Clear,50,2013-06-19 11:55:00
8:15 AM,64.4,51.8,64,30.04,10.0,NNE,5.8,-,N/A,,Clear,20,2013-06-19 12:15:00
8:35 AM,64.4,51.8,64,30.05,10.0,ENE,5.8,-,N/A,,Clear,60,2013-06-19 12:35:00
8:55 AM,64.4,51.8,64,30.06,10.0,NE,10.4,16.1,N/A,,Clear,50,2013-06-19 12:55:00
9:15 AM,66.2,50.0,56,30.06,10.0,NE,12.7,18.4,N/A,,Clear,50,2013-06-19 13:15:00
9:35 AM,68.0,50.0,52,30.07,10.0,ENE,10.4,-,N/A,,Clear,70,2013-06-19 13:35:00
9:55 AM,68.0,48.2,49,30.08,10.0,ENE,13.8,17.3,N/A,,Clear,60,2013-06-19 13:55:00
10:15 AM,68.0,48.2,49,30.08,10.0,NE,12.7,-,N/A,,Clear,50,2013-06-19 14:15:00
10:35 AM,69.8,50.0,49,30.09,10.0,NE,9.2,-,N/A,,Clear,50,2013-06-19 14:35:00
10:55 AM,69.8,48.2,46,30.09,10.0,ENE,12.7,16.1,N/A,,Clear,60,2013-06-19 14:55:00
11:15 AM,69.8,46.4,43,30.09,10.0,East,11.5,16.1,N/A,,Clear,80,2013-06-19 15:15:00
11:35 AM,71.6,44.6,38,30.09,10.0,ENE,11.5,17.3,N/A,,Clear,60,2013-06-19 15:35:00
11:55 AM,71.6,44.6,38,30.09,10.0,East,5.8,-,N/A,,Clear,80,2013-06-19 15:55:00
12:15 PM,71.6,44.6,38,30.09,10.0,East,4.6,-,N/A,,Scattered Clouds,100,2013-06-19 16:15:00
12:35 PM,71.6,46.4,41,30.09,10.0,ENE,4.6,-,N/A,,Mostly Cloudy,70,2013-06-19 16:35:00
12:55 PM,73.4,48.2,41,30.09,10.0,NW,6.9,-,N/A,,Scattered Clouds,320,2013-06-19 16:55:00
1:15 PM,71.6,46.4,41,30.09,10.0,NE,8.1,-,N/A,,Mostly Cloudy,50,2013-06-19 17:15:00
1:35 PM,71.6,46.4,41,30.08,10.0,Calm,Calm,-,N/A,,Mostly Cloudy,0,2013-06-19 17:35:00
1:55 PM,73.4,46.4,38,30.08,10.0,NNE,8.1,-,N/A,,Mostly Cloudy,20,2013-06-19 17:55:00
2:15 PM,73.4,42.8,33,30.08,10.0,Calm,Calm,-,N/A,,Mostly Cloudy,0,2013-06-19 18:15:00
2:35 PM,73.4,44.6,36,30.08,10.0,Calm,Calm,-,N/A,,Mostly Cloudy,0,2013-06-19 18:35:00
2:55 PM,73.4,46.4,38,30.08,10.0,WNW,4.6,-,N/A,,Scattered Clouds,290,2013-06-19 18:55:00
3:15 PM,73.4,44.6,36,30.08,10.0,NE,4.6,-,N/A,,Scattered Clouds,40,2013-06-19 19:15:00
3:35 PM,73.4,44.6,36,30.08,10.0,East,3.5,-,N/A,,Scattered Clouds,90,2013-06-19 19:35:00
3:55 PM,77.0,44.6,32,30.08,10.0,NNE,4.6,-,N/A,,Clear,30,2013-06-19 19:55:00
4:15 PM,75.2,42.8,31,30.08,10.0,Calm,Calm,-,N/A,,Scattered Clouds,0,2013-06-19 20:15:00
4:35 PM,77.0,44.6,32,30.08,10.0,Calm,Calm,-,N/A,,Scattered Clouds,0,2013-06-19 20:35:00
4:55 PM,77.0,44.6,32,30.08,10.0,Calm,Calm,-,N/A,,Mostly Cloudy,0,2013-06-19 20:55:00
5:15 PM,77.0,42.8,29,30.07,10.0,NW,4.6,-,N/A,,Mostly Cloudy,320,2013-06-19 21:15:00
5:35 PM,77.0,44.6,32,30.07,10.0,West,3.5,-,N/A,,Scattered Clouds,280,2013-06-19 21:35:00
5:55 PM,77.0,42.8,29,30.07,10.0,NNW,4.6,-,N/A,,Scattered Clouds,330,2013-06-19 21:55:00
6:15 PM,77.0,41.0,28,30.07,10.0,Calm,Calm,-,N/A,,Clear,0,2013-06-19 22:15:00
6:35 PM,77.0,42.8,29,30.08,10.0,NNW,4.6,-,N/A,,Clear,330,2013-06-19 22:35:00
6:55 PM,75.2,42.8,31,30.08,10.0,NW,5.8,-,N/A,,Clear,320,2013-06-19 22:55:00
7:15 PM,75.2,41.0,29,30.09,10.0,West,3.5,-,N/A,,Clear,270,2013-06-19 23:15:00
7:35 PM,73.4,41.0,31,30.09,10.0,West,3.5,-,N/A,,Clear,280,2013-06-19 23:35:00
7:55 PM,73.4,41.0,31,30.10,10.0,WNW,3.5,-,N/A,,Clear,300,2013-06-19 23:55:00
8:15 PM,73.4,41.0,31,30.11,10.0,Calm,Calm,-,N/A,,Clear,0,2013-06-20 00:15:00
8:35 PM,71.6,42.8,35,30.11,10.0,Calm,Calm,-,N/A,,Clear,0,2013-06-20 00:35:00
8:55 PM,68.0,48.2,49,30.11,10.0,Calm,Calm,-,N/A,,Clear,0,2013-06-20 00:55:00
9:15 PM,68.0,46.4,46,30.13,10.0,Calm,Calm,-,N/A,,Clear,0,2013-06-20 01:15:00
9:35 PM,66.2,48.2,52,30.13,10.0,Calm,Calm,-,N/A,,Clear,0,2013-06-20 01:35:00
9:55 PM,64.4,50.0,59,30.14,10.0,Calm,Calm,-,N/A,,Clear,0,2013-06-20 01:55:00
10:15 PM,64.4,50.0,59,30.15,10.0,Calm,Calm,-,N/A,,Clear,0,2013-06-20 02:15:00
10:35 PM,62.6,50.0,63,30.16,10.0,Calm,Calm,-,N/A,,Clear,0,2013-06-20 02:35:00
10:55 PM,60.8,50.0,68,30.16,10.0,Calm,Calm,-,N/A,,Clear,0,2013-06-20 02:55:00
11:15 PM,60.8,51.8,72,30.17,10.0,Calm,Calm,-,N/A,,Clear,0,2013-06-20 03:15:00
11:35 PM,60.8,51.8,72,30.17,10.0,Calm,Calm,-,N/A,,Clear,0,2013-06-20 03:35:00
11:55 PM,59.0,51.8,77,30.18,10.0,Calm,Calm,-,N/A,,Clear,0,2013-06-20 03:55:00